CW5272 Weather Reports


Display with metric or nautical units.
time (UTC)temp
F
wind
direction
speed
MPH
gust
MPH
rain 1hr
in
rain 24hr
in
rain mn
in
humidity
%
barometer
mb
20170627222325 79 140 0.0 6.0 0.00 0.01 0.01 53 1011.5
20170627220325 79 100 1.0 3.0 0.00 0.01 0.01 53 1011.5
20170627215325 79 219 0.0 4.0 0.00 0.01 0.01 53 1011.7
20170627214325 78 132 0.0 5.0 0.00 0.01 0.01 55 1011.7
20170627213325 78 138 1.0 3.0 0.00 0.01 0.01 56 1011.7
20170627212324 78 118 3.0 8.0 0.00 0.01 0.01 56 1012.0
20170627210324 78 137 0.0 2.0 0.00 0.01 0.01 56 1012.0
20170627205324 78 123 3.0 5.0 0.00 0.01 0.01 55 1012.0
20170627202324 77 90 2.0 5.0 0.00 0.01 0.01 56 1012.5
20170627201324 77 98 0.0 6.0 0.00 0.01 0.01 57 1012.6
20170627195324 75 73 0.0 4.0 0.00 0.01 0.01 59 1012.7
20170627193325 74 95 3.0 4.0 0.00 0.01 0.01 58 1012.7
20170627192324 74 79 0.0 5.0 0.00 0.01 0.01 60 1012.8
20170627185324 74 88 0.0 4.0 0.00 0.01 0.01 60 1012.7
20170627183324 73 102 0.0 3.0 0.00 0.01 0.01 63 1012.7
20170627182324 72 51 0.0 7.0 0.00 0.01 0.01 62 1012.9
20170627181324 72 95 2.0 4.0 0.00 0.01 0.01 65 1012.9
20170627180324 70 226 0.0 1.0 0.00 0.01 0.01 69 1012.9
20170627175324 68 276 0.0 3.0 0.00 0.01 0.01 71 1013.0
20170627174324 68 268 0.0 5.0 0.00 0.01 0.01 72 1013.2
20170627173324 67 217 0.0 3.0 0.00 0.01 0.01 74 1013.2
20170627172324 66 273 3.0 5.0 0.00 0.01 0.01 74 1013.3
20170627171324 65 269 4.0 6.0 0.00 0.01 0.01 76 1013.4
20170627170323 65 248 0.0 4.0 0.00 0.01 0.01 75 1013.4
20170627165323 64 316 1.0 3.0 0.00 0.01 0.01 78 1013.5
20170627164323 63 284 3.0 4.0 0.00 0.01 0.01 80 1013.6
20170627163324 62 267 0.0 3.0 0.00 0.01 0.01 84 1013.6
20170627162323 61 292 1.0 5.0 0.00 0.01 0.01 83 1013.7
20170627161323 60 293 0.0 4.0 0.00 0.01 0.01 85 1013.5
20170627160323 60 296 4.0 4.0 0.00 0.01 0.01 86 1013.5
20170627154323 58 299 3.0 4.0 0.00 0.01 0.01 89 1013.7
20170627153323 58 305 2.0 4.0 0.00 0.01 0.01 91 1013.7
20170627152323 57 286 0.0 3.0 0.00 0.01 0.01 91 1013.6
20170627151323 57 287 2.0 4.0 0.00 0.01 0.01 91 1013.2
20170627145323 56 300 2.0 5.0 0.00 0.01 0.01 91 1013.3
20170627144323 57 286 3.0 4.0 0.00 0.01 0.01 90 1013.4
20170627143323 56 319 0.0 0.0 0.00 0.01 0.01 95 1013.4
20170627142323 54 318 0.0 0.0 0.00 0.01 0.01 98 1013.2
20170627135323 52 280 2.0 6.0 0.00 0.01 0.01 98 1012.8
20170627133323 52 287 3.0 6.0 0.01 0.01 0.01 99 1012.8
20170627130323 52 304 3.0 6.0 0.01 0.01 0.01 99 1012.8
20170627125323 52 290 5.0 6.0 0.01 0.01 0.01 98 1012.6
20170627124323 52 298 2.0 6.0 0.01 0.01 0.01 98 1012.4
20170627122323 52 311 2.0 6.0 0.00 0.00 0.00 98 1012.5
20170627121323 52 304 3.0 9.0 0.00 0.00 0.00 98 1012.5
20170627120323 52 301 4.0 9.0 0.00 0.00 0.00 98 1012.5
20170627115323 52 314 3.0 5.0 0.00 0.00 0.00 98 1012.2
20170627114323 52 323 3.0 6.0 0.00 0.00 0.00 98 1012.2
20170627112323 52 355 1.0 9.0 0.00 0.00 0.00 98 1012.2
20170627110323 52 316 2.0 4.0 0.00 0.00 0.00 97 1012.2
20170627105323 52 265 2.0 9.0 0.00 0.00 0.00 97 1012.3
20170627104323 53 330 3.0 9.0 0.00 0.00 0.00 97 1012.2
20170627103323 53 312 2.0 6.0 0.00 0.00 0.00 97 1012.2
20170627102323 53 314 2.0 5.0 0.00 0.00 0.00 97 1012.1
20170627100323 53 317 3.0 7.0 0.00 0.00 0.00 96 1012.1
20170627095323 53 329 0.0 5.0 0.00 0.00 0.00 96 1012.3
20170627094323 53 298 3.0 9.0 0.00 0.00 0.00 96 1012.3
20170627092323 53 269 5.0 9.0 0.00 0.00 0.00 95 1012.5
20170627091323 53 260 5.0 8.0 0.00 0.00 0.00 95 1012.6
20170627090323 53 277 4.0 4.0 0.00 0.00 0.00 95 1012.6
20170627085323 54 299 3.0 5.0 0.00 0.00 0.00 95 1012.6
20170627084323 54 271 1.0 8.0 0.00 0.00 0.00 95 1012.7
20170627083323 54 261 4.0 8.0 0.00 0.00 0.00 95 1012.7
20170627082323 54 296 4.0 6.0 0.00 0.00 0.00 94 1012.9
20170627081322 54 259 1.0 6.0 0.00 0.00 0.00 94 1013.1
20170627074322 54 296 3.0 6.0 0.00 0.00 0.00 94 1013.0
20170627073323 55 314 3.0 5.0 0.00 0.00 0.00 93 1013.0
20170627072322 55 284 3.0 7.0 0.00 0.00 0.00 93 1013.1
20170627070323 55 330 3.0 4.0 0.00 0.00 0.00 93 1013.1
20170627064322 56 280 3.0 6.0 0.00 0.00 0.00 92 1013.3
20170627062322 56 279 0.0 10.0 0.00 0.00 0.00 91 1013.4
20170627061322 56 301 8.0 12.0 0.00 0.00 0.00 90 1013.5
20170627060322 56 252 4.0 12.0 0.00 0.00 0.00 90 1013.5
20170627053322 57 299 3.0 10.0 0.00 0.00 0.00 88 1013.6
20170627052322 58 273 5.0 9.0 0.00 0.00 0.00 87 1013.5
20170627051322 58 291 4.0 14.0 0.00 0.00 0.00 86 1013.6
20170627050322 58 286 3.0 8.0 0.00 0.00 0.00 85 1013.6
20170627043322 60 290 5.0 9.0 0.00 0.00 0.00 83 1013.5
20170627042322 60 271 5.0 10.0 0.00 0.00 0.00 82 1013.4
20170627041322 61 280 3.0 10.0 0.00 0.00 0.00 80 1013.5
20170627040322 61 269 5.0 10.0 0.00 0.00 0.00 79 1013.5
20170627033322 64 241 4.0 9.0 0.00 0.00 0.00 74 1013.2
20170627032322 65 249 0.0 11.0 0.00 0.00 0.00 72 1013.0
20170627030322 67 302 2.0 8.0 0.00 0.00 0.00 68 1013.1
20170627025322 68 288 4.0 9.0 0.00 0.00 0.00 66 1013.0
20170627024322 69 284 8.0 8.0 0.00 0.00 0.00 64 1012.8
20170627023322 70 286 5.0 7.0 0.00 0.00 0.00 62 1012.8
20170627021322 72 318 0.0 5.0 0.00 0.00 0.00 59 1012.8
20170627015322 75 266 0.0 5.0 0.00 0.00 0.00 56 1012.7
20170627014321 76 227 0.0 4.0 0.00 0.00 0.00 53 1012.8
20170627012321 76 165 0.0 3.0 0.00 0.00 0.00 51 1012.6
20170627011321 77 185 2.0 4.0 0.00 0.00 0.00 50 1012.7
20170627010321 77 115 0.0 3.0 0.00 0.00 0.00 50 1012.7
20170627005321 78 142 0.0 5.0 0.00 0.00 0.00 49 1012.6
20170627004321 78 124 0.0 3.0 0.00 0.00 0.00 49 1012.7
20170627001321 79 92 0.0 3.0 0.00 0.00 0.00 49 1013.1
20170627000321 80 82 0.0 3.0 0.00 0.00 0.00 49 1013.1
20170626235321 80 163 0.0 6.0 0.00 0.00 0.00 49 1013.2
20170626234321 79 111 0.0 5.0 0.00 0.00 0.00 49 1013.3
20170626232321 80 107 0.0 3.0 0.00 0.00 0.00 48 1013.6
20170626230321 80 106 0.0 4.0 0.00 0.00 0.00 47 1013.6
20170626225321 80 111 3.0 4.0 0.00 0.00 0.00 48 1013.7